This demonstration page uses our WeatherBlox Daily Observations layout. Learn more.

Left ArrowRight Arrow

36.17497, -115.13722

Hourly Observations for September 15, 2016

Temp ( °F °C ) Dew Point ( °F °C ) Humidity (%) Winds ( mph kmh ) Pressure ( in mb ) Visibility ( mi km ) Precip ( " mm )
12:53 am 00:53 Clear 71 21.7 29 -1.7 21 21 NW 8 13 29.98 1015 10 16.0934 0 0
1:53 am 01:53 Clear 69 20.6 28 -2.2 22 22 NW 9 15 29.97 1015 10 16.0934 0 0
2:53 am 02:53 Clear 71 21.7 25 -3.9 18 18 N 12 19 29.96 1015 10 16.0934 0 0
3:53 am 03:53 Clear 71 21.7 25 -3.9 18 18 NNW 7 11 29.97 1015 10 16.0934 0 0
4:53 am 04:53 Clear 71 21.7 23 -5 16 16 NNW 13 20 29.97 1015 10 16.0934 0 0
5:53 am 05:53 Clear 69 20.6 23 -5 17 17 N 13 20 29.98 1015 10 16.0934 0 0
6:53 am 06:53 Sunny 68 20 23 -5 18 18 N 10 17 30.01 1016 10 16.0934 0 0
7:53 am 07:53 Sunny 70 21.1 25 -3.9 18 18 N 7 11 30.03 1017 10 16.0934 0 0
8:53 am 08:53 Sunny 75 23.9 25 -3.9 15 15 N 7 11 30.04 1017 10 16.0934 0 0
9:53 am 09:53 Sunny 78 25.6 24 -4.4 13 13 ESE 7 11 30.04 1017 10 16.0934 0 0
10:53 am 10:53 Sunny 80 26.7 26 -3.3 14 14 VRB 3 6 30.04 1017 10 16.0934 0 0
11:53 am 11:53 Sunny 82 27.8 27 -2.8 13 13 VRB 6 9 30.02 1017 10 16.0934 0 0
12:53 pm 12:53 Sunny 85 29.4 27 -2.8 12 12 VRB 5 7 29.99 1016 10 16.0934 0 0
1:53 pm 13:53 Sunny 86 30 26 -3.3 11 11 Calm 29.96 1015 10 16.0934 0 0
2:53 pm 14:53 Sunny 87 30.6 26 -3.3 11 11 VRB 3 6 29.93 1014 10 16.0934 0 0
3:53 pm 15:53 Sunny 88 31.1 25 -3.9 10 10 E 5 7 29.91 1013 10 16.0934 0 0
4:53 pm 16:53 Sunny 88 31.1 25 -3.9 10 10 SW 8 13 29.9 1012 10 16.0934 0 0
5:53 pm 17:53 Sunny 87 30.6 25 -3.9 10 10 ESE 6 9 29.89 1012 10 16.0934 0 0
6:53 pm 18:53 Clear 85 29.4 25 -3.9 11 11 ESE 5 7 29.89 1012 10 16.0934 0 0
7:53 pm 19:53 Clear 84 28.9 26 -3.3 12 12 Calm 29.91 1013 10 16.0934 0 0
8:53 pm 20:53 Clear 80 26.7 29 -1.7 15 15 Calm 29.91 1013 10 16.0934 0 0
9:53 pm 21:53 Clear 78 25.6 29 -1.7 16 16 WNW 8 13 29.91 1013 10 16.0934 0 0
10:53 pm 22:53 Clear 75 23.9 29 -1.7 18 18 NW 7 11 29.91 1013 10 16.0934 0 0
11:53 pm 23:53 Clear 73 22.8 28 -2.2 19 19 NNW 7 11 29.92 1013 10 16.0934 0 0

Powered by AerisWeather